Regional Weather Roundup
Issued by NWS

Home | Current Version | Previous Version | Graphics & Text | Print | Product List | Glossary On
Versions: 1 2 3 4 5 6 7 8 9 10 11 12 13 14 15 16 17 18 19 20 21 22 23 24 25 26 27 28 29 30 31 32 33 34 35 36 37 38 39 40 41 42 43 44 45 46 47 48 49 50
000
ASUS44 KMEG 261610
RWRTN
TENNESSEE HOURLY STATE WEATHER ROUNDUP
NATIONAL WEATHER SERVICE MEMPHIS TN
1100 AM CDT MON JUN 26 2017

TNZ002-004-019-021-049-052-054-088>092-261700-
WEST TENNESSEE

CITY           SKY/WX    TMP DP  RH WIND       PRES   REMARKS
MEMPHIS INTL   CLOUDY    79  64  60 CALM      30.21R
NWS MEMPHIS      N/A     76 N/A N/A MISG        N/A
JACKSON        CLOUDY    73  60  63 E5        30.23R
SOMERVILLE     PTSUNNY   73  63  68 NW5       30.21R
COVINGTON      SUNNY     75  61  60 NE10      30.23R
UNION CITY     SUNNY     72  55  56 CALM      30.22F
BOLIVAR        MOSUNNY   73  63  68 NW5       30.21S
PARIS          SUNNY     72  54  53 NE3       30.22S
HUNTINGDON     CLOUDY    72  55  56 CALM      30.22S
LEXINGTON      SUNNY     68  61  77 CALM      30.22R
SELMER         SUNNY     70  61  73 CALM      30.21F
SAVANNAH       SUNNY     72  61  68 CALM      30.21S
$$

TNZ008-025-027-028-033-062-065-066-261700-
NORTH MIDDLE TENNESSEE

CITY           SKY/WX    TMP DP  RH WIND       PRES   REMARKS
NASHVILLE      CLOUDY    76  53  44 NE6       30.22S
PORTLAND       MOSUNNY   73  50  43 VRB3      30.20S
CLARKSVILLE    MOSUNNY   75  49  39 VRB5      30.21F
SMYRNA         PTSUNNY   73  56  54 N3        30.22F
COOKEVILLE     SUNNY     72  61  68 CALM      30.21R
GALLATIN       MOSUNNY   73  54  49 CALM      30.23S
CROSSVILLE     PTSUNNY   69  54  58 VRB7      30.23F
$$

TNZ061-075-076-078-094-096-097-261700-
SOUTH MIDDLE TENNESSEE

CITY           SKY/WX    TMP DP  RH WIND       PRES   REMARKS
FAYETTEVILLE   SUNNY     79  55  44 VRB6      30.21S
TULLAHOMA      SUNNY     75  55  50 NW7       30.23R
WINCHESTER     SUNNY     77  57  50 W5        30.22R
MCMINNVILLE    SUNNY     75  59  57 VRB6      30.21S
COLUMBIA       SUNNY     68  61  77 CALM      30.20S
SHELBYVILLE    SUNNY     72  59  64 N6        30.21S
$$

TNZ017-018-042-046-047-261700-
NORTHEAST TENNESSEE

CITY           SKY/WX    TMP DP  RH WIND       PRES   REMARKS
TRI CITIES     MOSUNNY   75  53  46 W12       30.20F
ELIZABETHTON   SUNNY     73  52  46 W9        30.20F
$$

TNZ012-013-036-069-073-074-261700-
CENTRAL EAST TENNESSEE

CITY           SKY/WX    TMP DP  RH WIND       PRES   REMARKS
KNOXVILLE      PTSUNNY   73  54  51 SW7       30.19F
OAK RIDGE      CLOUDY    76  53  44 VRB5      30.20F
DOWNTOWN KNOXV SUNNY     73  57  56 SW6       30.19S
GATLINBURG     SUNNY     79  52  38 W7        30.19F
MORRISTOWN     SUNNY     73  54  49 W8        30.19S
JACKSBORO      SUNNY     75  54  46 CALM      30.22F
$$

TNZ083-085-099-261700-
SOUTHEAST TENNESSEE

CITY           SKY/WX    TMP DP  RH WIND       PRES   REMARKS
CHATTANOOGA    MOSUNNY   79  55  43 VRB3      30.19F
$$

SKY/WX REPORTED AS FAIR MEANS FEW OR NO CLOUDS BELOW
12 THOUSAND FEET.





USA.gov is the U.S. government's official web portal to all federal, state and local government web resources and services.